Vorticity
4 4 -1 -1 1 -0 8 5 6 10 15 14 14 8 2 1 2 1 2 2 2 2 2 2 2 2 2 2 2 3 2 2 2 1 1 2 4 9 11 12 11 6 5
4 -1 0 7 1 2 8 6 11 9 12 14 11 2 2 1 1 1 1 2 2 1 2 2 3 3 3 3 3 3 3 2 3 2 1 1 2 2 3 5 6 9 14
5 2 21 1 6 6 8 11 7 15 12 9 8 1 -0 0 1 1 1 0 0 1 2 1 2 2 2 2 3 3 5 5 3 2 1 2 1 1 2 2 1 4 7
-6 12 -8 2 2 8 9 7 11 13 10 12 5 1 0 1 1 1 1 1 1 2 2 2 3 3 3 3 3 4 5 6 6 6 5 2 1 1 2 2 2 4 1
-9 37 1 5 6 6 7 8 13 15 8 8 2 1 1 1 1 1 1 2 2 2 4 5 6 8 9 9 9 10 11 11 11 9 8 10 14 13 5 2 2 2 3
25 12 5 6 3 8 5 12 15 11 9 5 2 2 2 2 1 1 2 3 3 5 6 8 9 9 10 11 13 10 9 9 7 5 2 3 3 3 10 10 6 4 3
1 6 5 6 8 5 10 15 11 9 6 5 3 3 2 2 2 3 4 3 6 6 6 6 5 3 4 5 5 6 5 3 2 3 4 4 3 4 3 6 9 8 5
3 9 5 8 5 10 14 11 7 5 3 3 3 2 2 3 4 2 3 8 5 6 6 8 7 5 3 3 5 6 5 3 3 3 4 6 6 6 6 4 6 7 8
9 8 6 6 9 12 7 4 3 2 2 2 2 2 3 4 1 5 6 2 5 6 5 6 10 11 7 2 1 8 7 5 4 5 7 8 7 6 4 5 4 6 5
7 8 3 9 14 7 4 4 3 2 2 3 3 5 4 4 7 3 3 5 3 7 4 4 1 3 6 8 7 5 5 10 8 6 6 8 10 10 7 7 8 8 5
6 4 8 14 8 5 4 2 1 2 4 6 5 3 6 6 4 3 -0 3 8 0 9 6 -2 -3 5 6 7 7 8 7 8 9 9 7 9 10 11 10 10 7 9
13 15 15 8 5 4 2 3 5 7 5 3 5 4 7 3 3 6 0 5 1 4 4 7 5 1 6 6 7 7 8 9 9 10 8 9 7 7 8 11 10 7 5
5 3 4 3 3 2 5 6 4 3 4 6 5 2 8 9 4 1 4 8 15 -9 3 3 7 9 6 6 8 9 9 8 7 7 7 8 8 7 6 7 7 9 8
3 4 5 5 7 6 4 2 2 5 4 4 4 13 3 2 4 2 6 -7 -0 3 2 6 8 13 10 8 9 12 10 10 10 9 9 9 8 6 8 8 7 6 7
9 7 6 5 3 3 2 3 6 7 3 5 4 2 8 11 22 14 -9 -2 -2 10 7 10 9 9 9 11 11 12 13 11 9 8 8 6 7 6 6 5 7 5 4
4 4 4 1 0 3 4 3 3 2 5 4 10 28 2 -7 3 5 2 10 10 12 13 14 16 17 14 12 11 10 8 5 5 4 3 5 1 2 1 1 1 1 2
1 8 -4 4 7 6 2 6 6 11 3 23 9 30 1 -2 -13 2 2 12 14 14 13 14 13 12 10 6 4 4 4 4 2 2 2 2 2 2 1 1 1 4 1
4 5 2 5 3 3 5 2 7 3 17 39 -40 14 -13 15 1 -1 9 17 12 12 13 12 10 3 1 3 1 0 1 2 2 2 2 1 2 2 2 0 2 3 3
4 3 9 5 1 2 6 5 12 45 -10 -16 13 10 4 -0 4 11 15 15 12 9 6 2 1 0 2 3 3 5 5 5 7 7 7 7 7 3 5 8 4 7 2
1 0 1 1 1 4 -5 19 -48 -18 8 11 5 5 -3 -3 11 14 15 10 7 3 3 2 2 5 5 6 6 4 4 3 2 3 5 4 6 5 5 4 4 4 2
10 9 6 3 -2 26 9 -5 -4 7 0 4 3 5 -0 10 24 12 4 1 2 2 1 3 6 4 5 0 1 1 2 -0 2 0 4 3 0 4 5 8 10 9 5
5 6 9 -1 19 3 6 0 7 8 -1 -1 6 2 13 10 7 7 5 4 4 4 8 6 5 2 2 2 1 2 3 1 4 4 3 5 5 3 4 0 -0 3 6
6 9 5 1 -1 2 2 5 4 4 -1 6 7 9 7 3 5 4 4 4 6 6 5 4 3 3 1 5 8 5 7 6 6 6 7 5 6 6 3 10 15 17 18
8 8 8 6 -3 1 13 2 8 4 8 14 11 5 6 6 4 6 7 6 7 5 2 3 2 2 6 5 5 4 5 6 7 8 1 2 11 20 30 44 41 37 36
12 4 5 13 23 10 12 10 17 20 8 10 8 8 7 4 7 6 6 7 5 3 4 1 3 4 2 2 1 7 9 8 5 1 12 27 41 39 34 30 28 28 32
18 18 12 7 7 6 8 8 9 7 7 8 9 6 8 10 5 6 7 7 3 4 1 1 3 4 5 8 12 9 6 2 12 33 47 47 36 26 26 32 32 31 27
Height
5858 5857 5857 5857 5855 5855 5853 5851 5849 5848 5846 5845 5846 5847 5848 5848 5847 5846 5846 5845 5846 5846 5845 5843 5841 5840 5839 5839 5837 5836 5834 5833 5831 5828 5827 5825 5825 5823 5822 5820 5818 5818 5817
5854 5853 5853 5853 5851 5851 5850 5848 5847 5846 5845 5845 5845 5846 5847 5846 5845 5845 5845 5845 5845 5844 5843 5842 5840 5839 5838 5837 5835 5834 5833 5831 5829 5827 5826 5824 5824 5822 5820 5818 5817 5816 5814
5849 5850 5849 5848 5848 5848 5846 5845 5844 5843 5843 5844 5844 5844 5846 5845 5845 5845 5845 5844 5843 5842 5840 5839 5838 5837 5836 5835 5833 5831 5830 5828 5826 5825 5824 5822 5821 5819 5818 5817 5815 5813 5811
5844 5845 5844 5844 5844 5842 5842 5841 5841 5841 5841 5842 5843 5845 5845 5844 5844 5843 5842 5840 5839 5838 5837 5836 5834 5833 5831 5831 5830 5829 5827 5826 5824 5822 5820 5819 5817 5816 5815 5814 5812 5811 5809
5837 5838 5837 5840 5840 5839 5838 5838 5838 5838 5839 5840 5842 5842 5842 5842 5842 5840 5839 5837 5836 5835 5834 5833 5831 5829 5828 5826 5825 5824 5822 5822 5820 5819 5816 5815 5814 5812 5811 5810 5809 5807 5805
5831 5830 5835 5837 5836 5835 5835 5836 5835 5835 5836 5838 5839 5839 5840 5840 5839 5838 5836 5835 5834 5834 5832 5830 5828 5825 5824 5822 5821 5820 5819 5818 5816 5815 5813 5811 5809 5809 5807 5806 5804 5804 5803
5823 5828 5832 5831 5833 5832 5833 5833 5833 5834 5834 5836 5837 5838 5839 5838 5837 5836 5835 5834 5832 5830 5828 5826 5824 5824 5822 5820 5818 5816 5816 5814 5812 5810 5809 5808 5805 5804 5803 5801 5800 5799 5799
5821 5826 5829 5830 5831 5830 5830 5831 5832 5833 5833 5835 5836 5836 5836 5835 5835 5833 5831 5829 5827 5826 5824 5822 5820 5819 5817 5816 5814 5812 5810 5809 5807 5804 5802 5802 5800 5799 5798 5796 5794 5794 5793
5819 5823 5826 5828 5828 5827 5829 5829 5831 5831 5831 5832 5834 5834 5833 5832 5831 5829 5827 5825 5824 5822 5820 5817 5816 5814 5812 5811 5810 5807 5805 5803 5800 5799 5797 5796 5794 5793 5792 5791 5789 5788 5788
5821 5823 5824 5824 5825 5827 5828 5828 5829 5829 5830 5831 5832 5830 5829 5828 5825 5824 5822 5821 5819 5817 5814 5812 5810 5808 5806 5804 5802 5800 5798 5796 5794 5793 5791 5789 5787 5786 5785 5784 5783 5782 5782
5819 5821 5821 5823 5823 5824 5826 5827 5827 5828 5828 5828 5828 5826 5824 5823 5821 5819 5819 5817 5815 5812 5811 5808 5805 5802 5799 5797 5794 5792 5791 5789 5786 5784 5784 5783 5781 5779 5778 5777 5776 5775 5775
5817 5819 5820 5822 5823 5824 5824 5825 5825 5825 5826 5825 5824 5822 5820 5818 5816 5815 5813 5811 5810 5808 5806 5804 5801 5798 5794 5791 5788 5785 5783 5780 5779 5776 5775 5774 5774 5773 5772 5771 5770 5769 5768
5817 5818 5820 5821 5822 5822 5823 5823 5823 5823 5822 5821 5819 5817 5815 5813 5811 5810 5808 5806 5804 5803 5799 5796 5793 5790 5787 5784 5781 5778 5776 5773 5771 5769 5767 5765 5764 5764 5764 5764 5763 5762 5761
5817 5818 5819 5819 5820 5821 5821 5820 5819 5818 5817 5815 5813 5811 5809 5808 5806 5804 5803 5800 5798 5794 5790 5787 5784 5781 5779 5776 5774 5771 5769 5766 5764 5761 5759 5758 5757 5756 5755 5756 5755 5754 5753
5817 5817 5818 5818 5819 5818 5818 5817 5816 5815 5813 5810 5808 5806 5805 5803 5801 5798 5797 5794 5789 5785 5781 5777 5774 5772 5769 5766 5764 5762 5760 5758 5756 5754 5751 5751 5748 5747 5746 5746 5746 5746 5745
5816 5816 5816 5816 5816 5815 5814 5814 5812 5810 5807 5805 5804 5801 5798 5794 5793 5792 5789 5784 5780 5775 5772 5767 5764 5761 5758 5756 5754 5753 5751 5749 5747 5746 5743 5740 5742 5739 5738 5737 5737 5736 5736
5814 5814 5812 5812 5811 5810 5809 5808 5805 5803 5799 5799 5797 5797 5793 5788 5786 5784 5780 5776 5770 5765 5761 5757 5754 5751 5749 5747 5745 5744 5743 5740 5738 5735 5733 5731 5729 5728 5727 5726 5725 5724 5724
5811 5810 5809 5809 5808 5807 5805 5803 5800 5794 5794 5794 5793 5789 5786 5782 5779 5774 5769 5763 5758 5754 5751 5748 5745 5742 5740 5738 5736 5733 5731 5727 5724 5722 5719 5718 5715 5713 5711 5711 5709 5707 5708
5808 5807 5807 5805 5804 5803 5800 5799 5796 5790 5791 5787 5784 5780 5777 5774 5769 5762 5756 5752 5749 5746 5742 5739 5735 5733 5730 5727 5723 5719 5716 5713 5709 5706 5703 5700 5698 5696 5693 5691 5691 5689 5689
5804 5804 5803 5803 5801 5799 5796 5793 5786 5782 5782 5779 5777 5772 5767 5761 5756 5752 5748 5744 5740 5736 5732 5727 5724 5720 5716 5713 5708 5704 5700 5697 5693 5688 5685 5681 5679 5677 5674 5671 5669 5667 5667
5802 5800 5799 5798 5795 5790 5784 5786 5780 5778 5775 5772 5767 5761 5755 5751 5747 5743 5738 5733 5728 5723 5718 5714 5711 5706 5701 5696 5691 5686 5680 5674 5672 5669 5664 5658 5655 5651 5647 5645 5644 5642 5640
5797 5795 5792 5791 5790 5787 5782 5778 5774 5772 5767 5762 5756 5750 5746 5740 5734 5729 5724 5719 5715 5711 5708 5703 5698 5693 5685 5679 5675 5668 5661 5654 5645 5641 5637 5633 5627 5621 5616 5612 5609 5607 5606
5791 5789 5787 5784 5782 5778 5775 5772 5769 5762 5756 5751 5745 5740 5735 5730 5725 5720 5715 5711 5706 5701 5695 5689 5683 5676 5669 5660 5653 5645 5637 5628 5620 5612 5606 5600 5595 5586 5579 5574 5569 5566 5563
5786 5783 5781 5779 5775 5773 5769 5764 5759 5755 5750 5744 5739 5733 5727 5721 5716 5711 5706 5700 5694 5688 5681 5673 5666 5657 5648 5639 5630 5622 5613 5604 5593 5586 5576 5565 5557 5547 5537 5528 5523 5518 5516
5780 5778 5776 5774 5770 5766 5761 5757 5753 5748 5742 5735 5728 5722 5717 5711 5706 5700 5694 5688 5681 5673 5665 5656 5647 5637 5627 5618 5607 5598 5587 5576 5564 5551 5542 5535 5523 5508 5500 5498 5495 5489 5486
5775 5772 5770 5766 5763 5759 5755 5751 5745 5739 5733 5727 5721 5715 5708 5702 5695 5688 5682 5674 5666 5658 5648 5638 5627 5616 5605 5594 5582 5571 5560 5547 5534 5518 5507 5501 5498 5491 5479 5475 5471 5465 5462